NIGCOMSAT 1R

Last updated on Sept. 30, 2020, 5:50 a.m. UTC

1 38014U 11077A   20273.80118927  .00000127  00000-0  00000-0 0  9992
2 38014   0.0205 319.2879 0002654 184.6458 195.9990  1.00271175 32031
UTC
Height (km)
Latitude
Longitude
Inclination
Orbital Period
UTC large
Height (km)
Speed (km/s)
/
Latitude / Longitude
Inclination (degrees)
Orbital Period (minutes)
Azimuth
Elevation
Range (km)
Doppler Factor
iOS Compass Heading
iOS Angle

Next 30 passes for location: Hong Kong

Rise time Rise Azimuth (degrees) Set time Set Azimuth (degrees) Duration Max altitude (degrees)

No matching passes for this satellites